Regional Weather Roundup
Issued by NWS New Orleans/Baton Rouge, LA

Home | Current Version | Previous Version | Text Only | Print | Product List | Glossary On
Versions: 1 2 3 4 5 6 7 8 9 10 11 12 13 14 15 16 17 18 19 20 21 22 23 24 25 26 27 28 29 30 31 32 33 34 35 36 37 38 39 40 41 42 43 44 45 46 47 48 49 50
961
ASUS44 KLIX 251705
RWRLIX
NEW ORLEANS REGIONAL WEATHER ROUNDUP
NATIONAL WEATHER SERVICE NEW ORLEANS LA
1200 PM CDT SAT OCT 25 2014

NOTE: "FAIR" INDICATES FEW OR NO CLOUDS BELOW 12,000 FEET WITH NO
      SIGNIFICANT WEATHER AND/OR OBSTRUCTIONS TO VISIBILITY.
      SKY/WX - SKY CONDITION AND SIGNIFICANT WEATHER.
      TMP - AIR TEMPERATURE.     DP    - DEWPOINT TEMPERATURE.
      RH  - RELATIVE HUMIDITY.   PRES  - PRESSURE.
      HI  - HEAT INDEX.          WCI   - WIND CHILL INDEX.

*  THESE STATIONS ARE NOT NWS OR FAA STATIONS AND ARE NOT UNDER
   NWS QUALITY CONTROL.

LAZ038-040-048-061>063-065>067-069-251800-
SOUTHEAST LOUISIANA

CITY           SKY/WX    TMP DP  RH WIND       PRES   REMARKS
N.O. AUDUBON     N/A     79  56  45 MISG        N/A
N.O. INTL ARPT SUNNY     73  51  46 NE6       30.16F
N.O. LAKEFRONT SUNNY     71  54  54 VRB5      30.16F
N.O. DOWNTOWN*   N/A     73  48  40 NE6       30.16F
SLIDELL        SUNNY     75  53  46 NE7       30.14F
BATON ROUGE    SUNNY     75  53  46 VRB6      30.16F
BOOTHVILLE     SUNNY     73  54  51 NE8       30.15S
BELLE CHASSE   SUNNY     75  50  41 NE8       30.15F
BOGALUSA*        N/A     76  51  41 NE5       30.16F
NEW ROADS*       N/A     74  54  50 CALM      30.17F
GONZALES*        N/A     74  53  48 NE5       30.16F
HAMMOND*       SUNNY     77  50  38 CALM      30.16F
HOUMA*         SUNNY     75  54  46 NE7       30.16F
PORT FOURCHON* SUNNY     72  54  53 NE13      30.18F

$$

MSZ070-080>082-251800-
SOUTHERN MISSISSIPPI

CITY           SKY/WX    TMP DP  RH WIND       PRES   REMARKS
MCCOMB         SUNNY     75  52  44 N8        30.16F
GULFPORT       SUNNY     74  53  48 N10       30.13F
BILOXI         SUNNY     75  53  46 NE9       30.13F
PASCAGOULA     SUNNY     75  54  47 N14G21    30.12F
STENNIS ARPT*  SUNNY     73  48  40 NE7       30.14F

$$

COASTAL OBSERVATIONS
LAKE AND NEARSHORE STATIONS

STATION/POSITION TIME  TEMP    WIND        PRES    WAVE
                       AIR SEA DIR/SP/G            HT/PER
                 (UTC) (F)     (DEG/KT/KT) (MB)    (FT/S)
PASCAGOULA       1700   73     360/  9/ 12 1019.6
WAVELAND YACHT   1700   70      10/  4/  5 1020.0
GRAND ISLE       1700   71 71   50/  7/ 11 1021.6
SOUTHWEST PASS   1700   75 80  360/ 12/ 13 1020.8
NEW CANAL        1700   67 69   10/  4/  5 1021.7
SHELL BEACH      1700   68 66   20/  8/  9 1020.9

OFFSHORE STATIONS

STATION/POSITION TIME  TEMP    WIND        PRES    WAVE
                       AIR SEA DIR/SP/G            HT/PER
                 (UTC) (F)     (DEG/KT/KT) (MB)    (FT/S)
64 S DAUPHIN ISL 1630   71 78   20/ 14/ 17 1020.4    3/ 5

$$




USA.gov is the U.S. government's official web portal to all federal, state and local government web resources and services.